#timestamp,LO_Frequency,Hit,StdDev 
1649923215.4,286046998.4,N
1649923235.2,286046997.8,N
1649923255.1,286047003.9,N
1649923256.0,286047003.9,N
1649923275.8,286047004.2,N
1649923295.7,286047005.6,N
1649923315.5,286047008.5,N
1649923335.3,286047004.3,N
1649923355.2,286047009.2,N
1649923375.0,286047001.5,N
1649923375.9,286047001.5,N
1649923395.7,286046999.8,N
1649923415.6,286046999.7,N
1649923435.4,286047001.9,N
1649923455.3,286046998.2,N
1649923475.1,286046998.4,N
1649923476.0,286046998.4,N
1649923495.8,286046998.4,N
1649923515.7,286046997.7,N
1649923535.5,286046997.5,N
1649923555.3,286046997.0,N
1649923575.2,286046998.6,N
1649923595.0,286046999.4,N
1649923595.9,286046999.4,N
1649923615.8,286046998.3,N
1649923635.6,286046996.7,N
1649923655.4,286046995.0,N
1649923675.3,286046999.5,N
1649923695.1,286046997.0,N
1649923715.8,286046996.1,N
1649923735.7,286046997.4,N
1649923755.5,286046996.8,N
1649923775.4,286046996.9,N
1649923795.2,286046996.8,N
1649923815.0,286046996.5,N
1649923815.9,286046996.5,N
1649923835.8,286046996.6,N
1649923855.6,286046997.1,N
1649923875.4,286046994.1,N
1649923895.3,286046994.1,Y
1649923915.1,286046996.6,P
1649923935.9,286046999.6,N
1649923955.7,286046999.7,N
1649923975.5,286047003.6,N
1649923995.4,286047007.5,Y
1649924015.2,286047009.6,P
1649924035.0,286047011.5,N
1649924035.9,286047011.5,N
1649924055.8,286047006.1,N
1649924075.6,286047007.3,N
1649924095.5,286047001.5,N
1649924115.3,286046999.1,N
1649924135.1,286046996.7,N
1649924155.9,286046997.6,N
1649924175.7,286046997.9,N
1649924195.5,286046993.3,N
1649924215.4,286046996.3,N
1649924235.2,286046993.4,N
1649924255.0,286046991.8,N
1649924256.0,286046991.8,N
1649924275.8,286046991.8,N
1649924295.6,286046992.6,N
1649924315.5,286046988.5,N
1649924335.3,286046991.4,N
1649924355.1,286046989.0,N
1649924375.9,286046989.1,N
1649924395.7,286046991.3,N
1649924415.5,286046991.3,N
1649924435.4,286046991.5,N
1649924455.2,286046990.5,N
1649924475.1,286046991.0,N
1649924476.0,286046991.0,N
1649924495.8,286046991.0,N
1649924515.6,286046991.2,N
1649924535.5,286046989.1,N
1649924555.3,286046988.9,N
1649924575.1,286046990.8,N
1649924595.9,286046992.6,N
1649924615.7,286046992.7,N
1649924635.6,286046993.1,N
1649924655.4,286046997.0,N
1649924675.2,286047001.2,N
1649924695.1,286047003.9,N
1649924696.0,286047003.9,N
1649924715.8,286047001.1,N
1649924735.6,286046996.7,N
1649924755.5,286046997.4,N
1649924775.3,286046997.2,N
1649924795.2,286047000.8,N
1649924815.9,286046998.4,N
1649924835.7,286046997.5,N
1649924855.6,286046997.9,N
1649924875.4,286047000.2,N
1649924895.2,286046999.0,N
1649924915.1,286046995.8,N
1649924916.0,286046995.8,N
1649924935.8,286047000.6,N
1649924955.7,286047000.3,N
1649924975.5,286046997.0,N
1649924995.3,286046995.9,N
1649925015.2,286046990.1,N
1649925035.9,286046990.4,N
1649925055.7,286046991.1,N
1649925075.6,286046988.6,N
1649925095.4,286046989.1,N
1649925115.3,286046988.8,N
1649925135.1,286046989.3,N
1649925136.0,286046989.3,N
1649925155.8,286046989.7,N
1649925175.7,286046990.1,N
1649925195.5,286046988.5,N
1649925215.3,286046989.5,N
1649925235.2,286046987.4,N
1649925255.0,286046987.1,N
1649925255.9,286046987.1,N
1649925275.8,286046986.9,N
1649925295.6,286046988.0,N
1649925315.4,286046985.4,Y
1649925335.3,286046994.5,P
1649925355.1,286046994.2,P
1649925375.9,286046993.7,P
1649925395.7,286046993.9,Y
1649925415.5,286047002.7,P
1649925435.4,286047002.5,N
1649925455.2,286046999.9,N
1649925475.0,286047000.0,N
1649925475.9,286047000.0,N
1649925495.8,286047001.0,N
1649925515.6,286047000.7,N
1649925535.5,286047000.5,N
1649925555.3,286046998.6,N
1649925575.1,286047000.6,N
1649925595.9,286047000.8,N
1649925615.7,286047000.8,N
1649925635.5,286047002.3,N
1649925655.4,286047002.6,N
1649925675.2,286047000.3,N
1649925695.0,286047000.3,N
1649925696.0,286047000.3,N
1649925715.8,286047001.2,N
1649925735.6,286046998.1,N
1649925755.5,286047000.2,N
1649925775.3,286046999.9,N
1649925795.1,286047000.4,N
1649925815.9,286046999.9,N
1649925835.7,286047001.4,N
1649925855.5,286047002.8,N
1649925875.4,286047002.9,N
1649925895.2,286047005.7,Y
1649925915.1,286047008.5,P
1649925916.0,286047008.5,N
1649925935.8,286047010.4,N
1649925955.6,286047008.2,N
1649925975.5,286047010.2,N
1649925995.3,286047006.8,N
1649926015.1,286047003.8,N
1649926035.9,286047005.9,N
1649926055.7,286047006.0,N
1649926075.6,286047002.6,N
1649926095.4,286047005.6,N
1649926115.2,286046998.1,N
1649926135.1,286046998.5,N
1649926136.0,286046998.5,N
1649926155.8,286047000.8,N
1649926175.6,286047001.0,N
1649926195.5,286047000.5,N
1649926215.3,286047001.1,N
1649926235.2,286047000.9,N
1649926255.9,286046998.5,N
1649926275.7,286046998.8,N
1649926295.6,286046999.3,N
1649926315.4,286046999.3,N
1649926335.2,286046996.8,N
1649926355.1,286046997.3,N
1649926356.0,286046997.3,N
1649926375.8,286046997.3,N
1649926395.7,286046998.4,N
1649926415.5,286046999.0,N
1649926435.3,286046999.3,N
1649926455.2,286047002.3,N
1649926475.0,286047007.6,N
1649926475.9,286047007.6,N
1649926495.7,286047011.5,N
1649926515.6,286047010.7,N
1649926535.4,286047013.4,Y
1649926555.3,286047013.1,P
1649926575.1,286047008.5,N
1649926576.0,286047008.5,N
1649926595.8,286047003.0,N
1649926615.7,286047004.9,N
1649926635.5,286047003.4,N
1649926655.3,286047003.2,N
1649926675.2,286047003.4,N
1649926695.0,286047003.1,N
1649926695.9,286047003.1,N
1649926715.8,286047007.2,N
1649926735.6,286047010.0,Y
1649926755.4,286047002.4,P
1649926775.3,286046999.1,N
1649926795.1,286047000.0,N
